Regional Weather Roundup
Issued by NWS Upton, NY

Current Version | Previous Version | Text Only | Print | Product List | Glossary On
Versions: 1 2 3 4 5 6 7 8 9 10 11 12 13 14 15 16 17 18 19 20 21 22 23 24 25 26 27
000 ASUS41 KOKX 280908 RWROKX REGIONAL WEATHER ROUNDUP NATIONAL WEATHER SERVICE NEW YORK NY 400 AM EST TUE FEB 28 2017 NOTE: "FAIR" INDICATES FEW OR NO CLOUDS BELOW 12,000 FEET WITH NO SIGNIFICANT WEATHER AND/OR OBSTRUCTIONS TO VISIBILITY. NYZ071-072-176-178-NJZ106-104-281000- NEW YORK CITY METRO AREA CITY SKY/WX TMP DP RH WIND PRES REMARKS Central Park CLOUDY 49 32 52 CALM 30.38S Wall St Helipt CLOUDY 48 33 56 CALM 30.37F LaGuardia APRT CLOUDY 48 34 58 S8 30.36S Kennedy INTL CLOUDY 45 40 82 SE3 30.37F Breezy Point N/A 43 N/A N/A SE2 N/A Newark/Liberty CLOUDY 46 32 58 CALM 30.36F Teterboro CLOUDY 44 34 67 CALM 30.35F $$ NYZ177-179-078>081-281000- LONG ISLAND NEW YORK CITY SKY/WX TMP DP RH WIND PRES REMARKS Jones Beach N/A 43 N/A N/A S5 N/A Matinecock PT NOT AVBL Farmingdale CLOUDY 44 39 82 CALM 30.37F MacArthur/ISP CLOUDY 44 40 85 CALM 30.37F Shirley CLOUDY 44 40 85 S3 30.38F Westhampton CLOUDY 41 38 89 CALM 30.39F Southampton NOT AVBL Bridgehampton NOT AVBL East Hampton CLOUDY 40 36 86 CALM 30.38F Montauk N/A 43 40 89 CALM 30.40F $$ NYZ052-065-067-281000- HUDSON VALLEY CITY SKY/WX TMP DP RH WIND PRES REMARKS White Plains CLOUDY 41 33 73 CALM 30.34F Newburgh CLOUDY 39 34 81 CALM 30.35F Montgomery CLOUDY 38 32 79 CALM 30.33F Poughkeepsie CLOUDY 37 32 82 CALM 30.35S Albany CLOUDY 35 24 64 CALM 30.36F $$ NJZ001-105-106-008-010-013-015-019>022-104-281000- NEW JERSEY CITY SKY/WX TMP DP RH WIND PRES REMARKS Newark/Liberty CLOUDY 46 32 58 CALM 30.36F Teterboro CLOUDY 44 34 67 CALM 30.35F Caldwell CLOUDY 40 33 76 CALM 30.36F Somerville CLOUDY 38 32 79 CALM 30.34F Linden NOT AVBL Sussex CLOUDY 36 32 85 CALM 30.33F Andover N/A 36 33 89 CALM 30.33F Trenton CLOUDY 42 33 70 CALM 30.34F Millville CLOUDY 50 42 74 CALM 30.33F Atlantic City CLOUDY 51 41 68 S8 30.33F Wrightstown CLOUDY 40 34 81 CALM 30.32F Toms River CLOUDY 38 35 89 CALM 30.35F Belmar CLOUDY 44 35 70 CALM 30.36F $$ PAZ047>061-062-071-281000- EASTERN PENNSYLVANIA CITY SKY/WX TMP DP RH WIND PRES REMARKS Philadelphia CLOUDY 45 36 70 E3 30.34F Allentown CLOUDY 39 33 79 NE3 30.33F Scranton CLOUDY 41 31 67 CALM 30.30S $$ CTZ002-004>006-009-010-012-RIZ004-006-007-MAZ004-011-015-281000- SOUTHERN NEW ENGLAND IN CT CITY SKY/WX TMP DP RH WIND PRES REMARKS Bradley INTL CLOUDY 37 32 82 CALM 30.37F Hartford CLOUDY 40 33 76 CALM 30.38F Danbury CLOUDY 36 30 79 CALM 30.36F Wtrbury/Oxford CLOUDY 39 28 65 CALM 30.36F Bridgeport CLOUDY 40 34 79 NE3 30.37F Meriden CLOUDY 36 33 89 CALM 30.37F New Haven CLOUDY 38 36 92 CALM 30.37F Chester CLOUDY 37 36 93 CALM 30.37S Groton CLOUDY 38 35 89 CALM 30.39S Wilimantic CLOUDY 34 30 85 CALM 30.39F IN RI CITY SKY/WX TMP DP RH WIND PRES REMARKS Providence CLOUDY 40 34 79 CALM 30.40F Block Island CLOUDY 43 39 86 S7 30.40F Westerly CLOUDY 37 33 85 CALM 30.40F IN MA CITY SKY/WX TMP DP RH WIND PRES REMARKS Boston CLOUDY 40 33 76 SW10 30.39S WCI 33 Worcester CLOUDY 38 26 62 W8 30.35S WCI 32 Westfield CLOUDY 38 31 76 CALM 30.37S Provincetown CLOUDY 40 38 93 SW9 30.40F WCI 34 Nantucket CLOUDY 44 39 82 W8 30.43S $$ ANZ330-335-338-340-345-350-353-355-281000- COASTAL MARINE OBSERVATIONS STATION/POSITION TIME SKY/WX TEMP WIND PRES VSBY WAVE AIR SEA DIR/SP/G HT/PER (UTC) (F) (DEG/KT/KT) (MB) (MI) (FT/S) NY HARB ENTRANCE 0750 44 43 190/ 6/ 6 1029.0 2/ 8 20 S FIRE ISLAND 0850 45 42 150/ 2/ 4 1028.3 3/ 8 GREAT SOUTH BAY NOT AVBL 23 SSW MONTAUK P 0750 46 46 1030.2 3/ 5 15 E BARNEGAT LI 0830 43 N/A 2/ 8 HUDSON CANYON 0750 47 1029.2 3/ 8 KINGS POINT 0836 45 40 1027.9 EXECUTION ROCKS NOT AVBL CENTRAL LI SOUND 0830 42 350/ 2/ 4 N/A 1 EASTERN LI SOUND NOT AVBL ROBBINS REEF 0836 45 170/ 7/ 7 1028.3 $$ >>>>>>>>>>>>>>>>>>>>>>>>>>>> KEY <<<<<<<<<<<<<<<<<<<<<<<<<<< > < > SKY/WX - Sky Condition/Present Weather < > TMP - Temperature in Fahrenheit < > DP - Dew Point in Fahrenheit < > RH - Relative Humidity in Percent < > WIND - Direction (from) and Speed in MPH < > PRES - Mean Sea Level Pressure (inches of Hg) < > WCI - Wind Chill Index < > VSB - VISIBILITY IN MILES < > HX - HEAT INDEX < > TC - TEMPERATURE IN CELSIUS < > VRB - VARIABLE WIND DIRECTION < > < >>>>>>>>>>>>>>>>>>>>>>>>>>>> KEY <<<<<<<<<<<<<<<<<<<<<<<<<<<

USA.gov is the U.S. government's official web portal to all federal, state and local government web resources and services.